owner,sensor,date,latitude,longitude,air_temperature,qcFlag 
DISL,ioos:station:DISL:CATA:1,2015-03-01T00:00:00Z,30.3085,-88.1395,12.09,1111122 
DISL,ioos:station:DISL:CATA:1,2015-03-01T00:30:00Z,30.3085,-88.1395,12.23,1111122 
DISL,ioos:station:DISL:CATA:1,2015-03-01T01:00:00Z,30.3085,-88.1395,12.16,1111122 
DISL,ioos:station:DISL:CATA:1,2015-03-01T01:30:00Z,30.3085,-88.1395,11.95,1111122 
DISL,ioos:station:DISL:CATA:1,2015-03-01T02:00:00Z,30.3085,-88.1395,12.02,1111122 
DISL,ioos:station:DISL:CATA:1,2015-03-01T02:30:00Z,30.3085,-88.1395,12.23,1111122 
DISL,ioos:station:DISL:CATA:1,2015-03-01T03:00:00Z,30.3085,-88.1395,11.65,1111122 
DISL,ioos:station:DISL:CATA:1,2015-03-01T03:30:00Z,30.3085,-88.1395,11.95,1111122 
DISL,ioos:station:DISL:CATA:1,2015-03-01T04:00:00Z,30.3085,-88.1395,11.65,1111122 
DISL,ioos:station:DISL:CATA:1,2015-03-01T04:30:00Z,30.3085,-88.1395,11.68,1111122 
DISL,ioos:station:DISL:CATA:1,2015-03-01T05:00:00Z,30.3085,-88.1395,11.23,1111122 
DISL,ioos:station:DISL:CATA:1,2015-03-01T05:30:00Z,30.3085,-88.1395,11.06,1111122 
DISL,ioos:station:DISL:CATA:1,2015-03-01T06:30:00Z,30.3085,-88.1395,11.13,1111122 
DISL,ioos:station:DISL:CATA:1,2015-03-01T07:00:00Z,30.3085,-88.1395,10.03,1111122 
DISL,ioos:station:DISL:CATA:1,2015-03-01T07:30:00Z,30.3085,-88.1395,9.59,1111122 
DISL,ioos:station:DISL:CATA:1,2015-03-01T08:00:00Z,30.3085,-88.1395,9.66,1111122 
DISL,ioos:station:DISL:CATA:1,2015-03-01T08:30:00Z,30.3085,-88.1395,10.03,1111122 
DISL,ioos:station:DISL:CATA:1,2015-03-01T09:00:00Z,30.3085,-88.1395,9.66,1111122 
DISL,ioos:station:DISL:CATA:1,2015-03-01T09:30:00Z,30.3085,-88.1395,9.42,1111122 
DISL,ioos:station:DISL:CATA:1,2015-03-01T10:00:00Z,30.3085,-88.1395,9.45,1111122 
DISL,ioos:station:DISL:CATA:1,2015-03-01T10:30:00Z,30.3085,-88.1395,9.38,1111122 
DISL,ioos:station:DISL:CATA:1,2015-03-01T11:00:00Z,30.3085,-88.1395,9.28,1111122 
DISL,ioos:station:DISL:CATA:1,2015-03-01T11:30:00Z,30.3085,-88.1395,9.45,1111122 
DISL,ioos:station:DISL:CATA:1,2015-03-01T12:00:00Z,30.3085,-88.1395,9.86,1111122 
DISL,ioos:station:DISL:CATA:1,2015-03-01T12:30:00Z,30.3085,-88.1395,9.62,1111122 
DISL,ioos:station:DISL:CATA:1,2015-03-01T13:00:00Z,30.3085,-88.1395,9.79,1111122 
DISL,ioos:station:DISL:CATA:1,2015-03-01T13:30:00Z,30.3085,-88.1395,9.83,1111122 
DISL,ioos:station:DISL:CATA:1,2015-03-01T14:00:00Z,30.3085,-88.1395,10.34,1111122 
DISL,ioos:station:DISL:CATA:1,2015-03-01T14:30:00Z,30.3085,-88.1395,9.45,1111122 
DISL,ioos:station:DISL:CATA:1,2015-03-01T15:00:00Z,30.3085,-88.1395,9.9,1111122 
DISL,ioos:station:DISL:CATA:1,2015-03-01T15:30:00Z,30.3085,-88.1395,10.14,1111122 
DISL,ioos:station:DISL:CATA:1,2015-03-01T16:00:00Z,30.3085,-88.1395,10.03,1111122 
DISL,ioos:station:DISL:CATA:1,2015-03-01T16:30:00Z,30.3085,-88.1395,9.79,1111122 
DISL,ioos:station:DISL:CATA:1,2015-03-01T17:00:00Z,30.3085,-88.1395,9.97,1111122 
DISL,ioos:station:DISL:CATA:1,2015-03-01T17:30:00Z,30.3085,-88.1395,10.31,1111122 
DISL,ioos:station:DISL:CATA:1,2015-03-01T18:00:00Z,30.3085,-88.1395,10.07,1111122 
DISL,ioos:station:DISL:CATA:1,2015-03-01T18:30:00Z,30.3085,-88.1395,10.27,1111122 
DISL,ioos:station:DISL:CATA:1,2015-03-01T19:00:00Z,30.3085,-88.1395,10.69,1111122 
DISL,ioos:station:DISL:CATA:1,2015-03-01T19:30:00Z,30.3085,-88.1395,10.51,1111122 
DISL,ioos:station:DISL:CATA:1,2015-03-01T20:00:00Z,30.3085,-88.1395,10.34,1111122 
DISL,ioos:station:DISL:CATA:1,2015-03-01T20:30:00Z,30.3085,-88.1395,10.69,1111122 
DISL,ioos:station:DISL:CATA:1,2015-03-01T21:00:00Z,30.3085,-88.1395,11.54,1111122 
DISL,ioos:station:DISL:CATA:1,2015-03-01T21:30:00Z,30.3085,-88.1395,11.34,1111122 
DISL,ioos:station:DISL:CATA:1,2015-03-01T22:00:00Z,30.3085,-88.1395,10.89,1111122 
DISL,ioos:station:DISL:CATA:1,2015-03-01T22:30:00Z,30.3085,-88.1395,10.72,1111122 
DISL,ioos:station:DISL:CATA:1,2015-03-01T23:00:00Z,30.3085,-88.1395,10.89,1111122 
DISL,ioos:station:DISL:CATA:1,2015-03-01T23:30:00Z,30.3085,-88.1395,11.99,1111122 
DISL,ioos:station:DISL:CATA:1,2015-03-02T00:00:00Z,30.3085,-88.1395,11.37,1111122 
DISL,ioos:station:DISL:CATA:1,2015-03-02T00:30:00Z,30.3085,-88.1395,12.16,1111122 
DISL,ioos:station:DISL:CATA:1,2015-03-02T01:00:00Z,30.3085,-88.1395,11.54,1111122 
DISL,ioos:station:DISL:CATA:1,2015-03-02T01:30:00Z,30.3085,-88.1395,11.51,1111122 
DISL,ioos:station:DISL:CATA:1,2015-03-02T02:00:00Z,30.3085,-88.1395,10.99,1111122 
DISL,ioos:station:DISL:CATA:1,2015-03-02T02:30:00Z,30.3085,-88.1395,11.13,1111122 
DISL,ioos:station:DISL:CATA:1,2015-03-02T03:00:00Z,30.3085,-88.1395,11.51,1111122 
DISL,ioos:station:DISL:CATA:1,2015-03-02T03:30:00Z,30.3085,-88.1395,11.34,1111122 
DISL,ioos:station:DISL:CATA:1,2015-03-02T04:00:00Z,30.3085,-88.1395,12.06,1111122 
DISL,ioos:station:DISL:CATA:1,2015-03-02T04:30:00Z,30.3085,-88.1395,11.2,1111122 
DISL,ioos:station:DISL:CATA:1,2015-03-02T05:00:00Z,30.3085,-88.1395,11.2,1111122 
DISL,ioos:station:DISL:CATA:1,2015-03-02T05:30:00Z,30.3085,-88.1395,11.65,1111122 
DISL,ioos:station:DISL:CATA:1,2015-03-02T06:30:00Z,30.3085,-88.1395,11.06,1111122 
DISL,ioos:station:DISL:CATA:1,2015-03-02T07:00:00Z,30.3085,-88.1395,10.93,1111122 
DISL,ioos:station:DISL:CATA:1,2015-03-02T07:30:00Z,30.3085,-88.1395,10.75,1111122 
DISL,ioos:station:DISL:CATA:1,2015-03-02T08:00:00Z,30.3085,-88.1395,11.54,1111122 
DISL,ioos:station:DISL:CATA:1,2015-03-02T08:30:00Z,30.3085,-88.1395,11.85,1111122 
DISL,ioos:station:DISL:CATA:1,2015-03-02T09:00:00Z,30.3085,-88.1395,11.61,1111122 
DISL,ioos:station:DISL:CATA:1,2015-03-02T09:30:00Z,30.3085,-88.1395,11.71,1111122 
DISL,ioos:station:DISL:CATA:1,2015-03-02T10:00:00Z,30.3085,-88.1395,11.99,1111122 
DISL,ioos:station:DISL:CATA:1,2015-03-02T10:30:00Z,30.3085,-88.1395,12.71,1111122 
DISL,ioos:station:DISL:CATA:1,2015-03-02T11:00:00Z,30.3085,-88.1395,12.13,1111122 
DISL,ioos:station:DISL:CATA:1,2015-03-02T11:30:00Z,30.3085,-88.1395,12.06,1111122 
DISL,ioos:station:DISL:CATA:1,2015-03-02T12:00:00Z,30.3085,-88.1395,12.71,1111122 
DISL,ioos:station:DISL:CATA:1,2015-03-02T12:30:00Z,30.3085,-88.1395,11.37,1111122 
DISL,ioos:station:DISL:CATA:1,2015-03-02T13:00:00Z,30.3085,-88.1395,12.09,1111122 
DISL,ioos:station:DISL:CATA:1,2015-03-02T13:30:00Z,30.3085,-88.1395,12.5,1111122 
DISL,ioos:station:DISL:CATA:1,2015-03-02T14:00:00Z,30.3085,-88.1395,11.75,1111122 
DISL,ioos:station:DISL:CATA:1,2015-03-02T14:30:00Z,30.3085,-88.1395,11.3,1111122 
DISL,ioos:station:DISL:CATA:1,2015-03-02T15:00:00Z,30.3085,-88.1395,11.99,1111122 
DISL,ioos:station:DISL:CATA:1,2015-03-02T15:30:00Z,30.3085,-88.1395,12.57,1111122 
DISL,ioos:station:DISL:CATA:1,2015-03-02T16:00:00Z,30.3085,-88.1395,12.78,1111122 
DISL,ioos:station:DISL:CATA:1,2015-03-02T16:30:00Z,30.3085,-88.1395,12.95,1111122 
DISL,ioos:station:DISL:CATA:1,2015-03-02T17:00:00Z,30.3085,-88.1395,13.12,1111122 
DISL,ioos:station:DISL:CATA:1,2015-03-02T17:30:00Z,30.3085,-88.1395,13.31,1111122 
DISL,ioos:station:DISL:CATA:1,2015-03-02T18:00:00Z,30.3085,-88.1395,14.44,1111122 
DISL,ioos:station:DISL:CATA:1,2015-03-02T18:30:00Z,30.3085,-88.1395,13.72,1111122 
DISL,ioos:station:DISL:CATA:1,2015-03-02T19:00:00Z,30.3085,-88.1395,14.78,1111122 
DISL,ioos:station:DISL:CATA:1,2015-03-02T19:30:00Z,30.3085,-88.1395,14.23,1111122 
DISL,ioos:station:DISL:CATA:1,2015-03-02T20:00:00Z,30.3085,-88.1395,14.67,1111122 
DISL,ioos:station:DISL:CATA:1,2015-03-02T20:30:00Z,30.3085,-88.1395,14.99,1111122 
DISL,ioos:station:DISL:CATA:1,2015-03-02T21:00:00Z,30.3085,-88.1395,14.47,1111122 
DISL,ioos:station:DISL:CATA:1,2015-03-02T21:30:00Z,30.3085,-88.1395,14.4,1111122 
DISL,ioos:station:DISL:CATA:1,2015-03-02T22:00:00Z,30.3085,-88.1395,14.75,1111122 
DISL,ioos:station:DISL:CATA:1,2015-03-02T22:30:00Z,30.3085,-88.1395,14.13,1111122 
DISL,ioos:station:DISL:CATA:1,2015-03-02T23:00:00Z,30.3085,-88.1395,14.23,1111122 
DISL,ioos:station:DISL:CATA:1,2015-03-02T23:30:00Z,30.3085,-88.1395,14.75,1111122 
DISL,ioos:station:DISL:CATA:1,2015-03-03T00:00:00Z,30.3085,-88.1395,14.85,1111122 
DISL,ioos:station:DISL:CATA:1,2015-03-03T00:30:00Z,30.3085,-88.1395,14.47,1111122 
DISL,ioos:station:DISL:CATA:1,2015-03-03T01:00:00Z,30.3085,-88.1395,14.27,1111122 
DISL,ioos:station:DISL:CATA:1,2015-03-03T01:30:00Z,30.3085,-88.1395,14.17,1111122 
DISL,ioos:station:DISL:CATA:1,2015-03-03T02:00:00Z,30.3085,-88.1395,13.66,1111122 
DISL,ioos:station:DISL:CATA:1,2015-03-03T02:30:00Z,30.3085,-88.1395,13.42,1111122 
DISL,ioos:station:DISL:CATA:1,2015-03-03T03:00:00Z,30.3085,-88.1395,14.21,1111122 
DISL,ioos:station:DISL:CATA:1,2015-03-03T03:30:00Z,30.3085,-88.1395,13.52,1111122 
DISL,ioos:station:DISL:CATA:1,2015-03-03T04:00:00Z,30.3085,-88.1395,13.63,1111122 
DISL,ioos:station:DISL:CATA:1,2015-03-03T04:30:00Z,30.3085,-88.1395,13.66,1111122 
DISL,ioos:station:DISL:CATA:1,2015-03-03T05:00:00Z,30.3085,-88.1395,14.38,1111122 
DISL,ioos:station:DISL:CATA:1,2015-03-03T05:30:00Z,30.3085,-88.1395,14.93,1111122 
DISL,ioos:station:DISL:CATA:1,2015-03-03T06:30:00Z,30.3085,-88.1395,15.78,1111122 
DISL,ioos:station:DISL:CATA:1,2015-03-03T07:00:00Z,30.3085,-88.1395,14.99,1111122 
DISL,ioos:station:DISL:CATA:1,2015-03-03T07:30:00Z,30.3085,-88.1395,14.82,1111122 
DISL,ioos:station:DISL:CATA:1,2015-03-03T08:00:00Z,30.3085,-88.1395,14.58,1111122 
DISL,ioos:station:DISL:CATA:1,2015-03-03T08:30:00Z,30.3085,-88.1395,14.03,1111122 
DISL,ioos:station:DISL:CATA:1,2015-03-03T09:00:00Z,30.3085,-88.1395,14.68,1111122 
DISL,ioos:station:DISL:CATA:1,2015-03-03T09:30:00Z,30.3085,-88.1395,14.31,1111122 
DISL,ioos:station:DISL:CATA:1,2015-03-03T10:00:00Z,30.3085,-88.1395,15.31,1111122 
DISL,ioos:station:DISL:CATA:1,2015-03-03T10:30:00Z,30.3085,-88.1395,14.31,1111122 
DISL,ioos:station:DISL:CATA:1,2015-03-03T11:00:00Z,30.3085,-88.1395,13.49,1111122 
DISL,ioos:station:DISL:CATA:1,2015-03-03T11:30:00Z,30.3085,-88.1395,14.04,1111122 
DISL,ioos:station:DISL:CATA:1,2015-03-03T12:00:00Z,30.3085,-88.1395,13.66,1111122 
DISL,ioos:station:DISL:CATA:1,2015-03-03T12:30:00Z,30.3085,-88.1395,14.14,1111122 
DISL,ioos:station:DISL:CATA:1,2015-03-03T13:00:00Z,30.3085,-88.1395,13.8,1111122 
DISL,ioos:station:DISL:CATA:1,2015-03-03T13:30:00Z,30.3085,-88.1395,14.62,1111122 
DISL,ioos:station:DISL:CATA:1,2015-03-03T14:00:00Z,30.3085,-88.1395,14.31,1111122 
DISL,ioos:station:DISL:CATA:1,2015-03-03T14:30:00Z,30.3085,-88.1395,15.06,1111122 
DISL,ioos:station:DISL:CATA:1,2015-03-03T15:00:00Z,30.3085,-88.1395,14.27,1111122 
DISL,ioos:station:DISL:CATA:1,2015-03-03T15:30:00Z,30.3085,-88.1395,14.47,1111122 
DISL,ioos:station:DISL:CATA:1,2015-03-03T16:00:00Z,30.3085,-88.1395,14.54,1111122 
DISL,ioos:station:DISL:CATA:1,2015-03-03T16:30:00Z,30.3085,-88.1395,14.78,1111122 
DISL,ioos:station:DISL:CATA:1,2015-03-03T17:00:00Z,30.3085,-88.1395,15.02,1111122 
DISL,ioos:station:DISL:CATA:1,2015-03-03T17:30:00Z,30.3085,-88.1395,14.84,1111122 
DISL,ioos:station:DISL:CATA:1,2015-03-03T18:00:00Z,30.3085,-88.1395,15.0,1111122 
DISL,ioos:station:DISL:CATA:1,2015-03-03T18:30:00Z,30.3085,-88.1395,16.82,1111122 
DISL,ioos:station:DISL:CATA:1,2015-03-03T19:00:00Z,30.3085,-88.1395,16.68,1111122 
DISL,ioos:station:DISL:CATA:1,2015-03-03T19:30:00Z,30.3085,-88.1395,16.27,1111122 
DISL,ioos:station:DISL:CATA:1,2015-03-03T20:00:00Z,30.3085,-88.1395,16.72,1111122 
DISL,ioos:station:DISL:CATA:1,2015-03-03T20:30:00Z,30.3085,-88.1395,17.23,1111122 
DISL,ioos:station:DISL:CATA:1,2015-03-03T21:00:00Z,30.3085,-88.1395,17.13,1111122 
DISL,ioos:station:DISL:CATA:1,2015-03-03T21:30:00Z,30.3085,-88.1395,17.54,1111122 
DISL,ioos:station:DISL:CATA:1,2015-03-03T22:00:00Z,30.3085,-88.1395,17.85,1111122 
DISL,ioos:station:DISL:CATA:1,2015-03-03T22:30:00Z,30.3085,-88.1395,17.1,1111122 
DISL,ioos:station:DISL:CATA:1,2015-03-03T23:00:00Z,30.3085,-88.1395,17.11,1111122 
DISL,ioos:station:DISL:CATA:1,2015-03-03T23:30:00Z,30.3085,-88.1395,16.19,1111122 
DISL,ioos:station:DISL:CATA:1,2015-03-04T00:00:00Z,30.3085,-88.1395,15.19,1111122 
DISL,ioos:station:DISL:CATA:1,2015-03-04T00:30:00Z,30.3085,-88.1395,15.3,1111122 
DISL,ioos:station:DISL:CATA:1,2015-03-04T01:00:00Z,30.3085,-88.1395,15.47,1111122 
DISL,ioos:station:DISL:CATA:1,2015-03-04T01:30:00Z,30.3085,-88.1395,15.5,1111122 
DISL,ioos:station:DISL:CATA:1,2015-03-04T02:00:00Z,30.3085,-88.1395,14.68,1111122 
DISL,ioos:station:DISL:CATA:1,2015-03-04T02:30:00Z,30.3085,-88.1395,16.22,1111122 
DISL,ioos:station:DISL:CATA:1,2015-03-04T03:00:00Z,30.3085,-88.1395,16.12,1111122 
DISL,ioos:station:DISL:CATA:1,2015-03-04T03:30:00Z,30.3085,-88.1395,16.15,1111122 
DISL,ioos:station:DISL:CATA:1,2015-03-04T04:00:00Z,30.3085,-88.1395,16.19,1111122 
DISL,ioos:station:DISL:CATA:1,2015-03-04T04:30:00Z,30.3085,-88.1395,15.88,1111122 
DISL,ioos:station:DISL:CATA:1,2015-03-04T05:00:00Z,30.3085,-88.1395,15.88,1111122 
DISL,ioos:station:DISL:CATA:1,2015-03-04T05:30:00Z,30.3085,-88.1395,16.26,1111122 
DISL,ioos:station:DISL:CATA:1,2015-03-04T06:30:00Z,30.3085,-88.1395,16.46,1111122 
DISL,ioos:station:DISL:CATA:1,2015-03-04T07:00:00Z,30.3085,-88.1395,15.61,1111122 
DISL,ioos:station:DISL:CATA:1,2015-03-04T07:30:00Z,30.3085,-88.1395,15.78,1111122 
DISL,ioos:station:DISL:CATA:1,2015-03-04T08:00:00Z,30.3085,-88.1395,15.74,1111122 
DISL,ioos:station:DISL:CATA:1,2015-03-04T08:30:00Z,30.3085,-88.1395,15.54,1111122 
DISL,ioos:station:DISL:CATA:1,2015-03-04T09:00:00Z,30.3085,-88.1395,16.26,1111122 
DISL,ioos:station:DISL:CATA:1,2015-03-04T09:30:00Z,30.3085,-88.1395,15.74,1111122 
DISL,ioos:station:DISL:CATA:1,2015-03-04T10:00:00Z,30.3085,-88.1395,15.85,1111122 
DISL,ioos:station:DISL:CATA:1,2015-03-04T10:30:00Z,30.3085,-88.1395,15.85,1111122 
DISL,ioos:station:DISL:CATA:1,2015-03-04T11:00:00Z,30.3085,-88.1395,16.39,1111122 
DISL,ioos:station:DISL:CATA:1,2015-03-04T11:30:00Z,30.3085,-88.1395,16.22,1111122 
DISL,ioos:station:DISL:CATA:1,2015-03-04T12:00:00Z,30.3085,-88.1395,16.02,1111122 
DISL,ioos:station:DISL:CATA:1,2015-03-04T12:30:00Z,30.3085,-88.1395,15.88,1111122 
DISL,ioos:station:DISL:CATA:1,2015-03-04T13:00:00Z,30.3085,-88.1395,15.16,1111122 
DISL,ioos:station:DISL:CATA:1,2015-03-04T13:30:00Z,30.3085,-88.1395,15.33,1111122 
DISL,ioos:station:DISL:CATA:1,2015-03-04T14:00:00Z,30.3085,-88.1395,15.57,1111122 
DISL,ioos:station:DISL:CATA:1,2015-03-04T14:30:00Z,30.3085,-88.1395,17.56,1111122 
DISL,ioos:station:DISL:CATA:1,2015-03-04T15:00:00Z,30.3085,-88.1395,18.79,1111122 
DISL,ioos:station:DISL:CATA:1,2015-03-04T15:30:00Z,30.3085,-88.1395,18.64,1111122 
DISL,ioos:station:DISL:CATA:1,2015-03-04T16:00:00Z,30.3085,-88.1395,18.81,1111122 
DISL,ioos:station:DISL:CATA:1,2015-03-04T16:30:00Z,30.3085,-88.1395,18.64,1111122 
DISL,ioos:station:DISL:CATA:1,2015-03-04T17:00:00Z,30.3085,-88.1395,18.7,1111122 
DISL,ioos:station:DISL:CATA:1,2015-03-04T17:30:00Z,30.3085,-88.1395,19.56,1111122 
DISL,ioos:station:DISL:CATA:1,2015-03-04T18:00:00Z,30.3085,-88.1395,19.42,1111122 
DISL,ioos:station:DISL:CATA:1,2015-03-04T18:30:00Z,30.3085,-88.1395,20.21,1111122 
DISL,ioos:station:DISL:CATA:1,2015-03-04T19:00:00Z,30.3085,-88.1395,20.69,1111122 
DISL,ioos:station:DISL:CATA:1,2015-03-04T19:30:00Z,30.3085,-88.1395,20.45,1111122 
DISL,ioos:station:DISL:CATA:1,2015-03-04T20:00:00Z,30.3085,-88.1395,20.32,1111122 
DISL,ioos:station:DISL:CATA:1,2015-03-04T20:30:00Z,30.3085,-88.1395,20.42,1111122 
DISL,ioos:station:DISL:CATA:1,2015-03-04T21:00:00Z,30.3085,-88.1395,20.14,1111122 
DISL,ioos:station:DISL:CATA:1,2015-03-04T21:30:00Z,30.3085,-88.1395,20.08,1111122 
DISL,ioos:station:DISL:CATA:1,2015-03-04T22:00:00Z,30.3085,-88.1395,20.08,1111122 
DISL,ioos:station:DISL:CATA:1,2015-03-04T22:30:00Z,30.3085,-88.1395,20.18,1111122 
DISL,ioos:station:DISL:CATA:1,2015-03-04T23:00:00Z,30.3085,-88.1395,19.49,1111122 
DISL,ioos:station:DISL:CATA:1,2015-03-04T23:30:00Z,30.3085,-88.1395,19.08,1111122 
DISL,ioos:station:DISL:CATA:1,2015-03-05T00:00:00Z,30.3085,-88.1395,18.95,1111122 
DISL,ioos:station:DISL:CATA:1,2015-03-05T00:30:00Z,30.3085,-88.1395,19.44,1111122 
DISL,ioos:station:DISL:CATA:1,2015-03-05T01:00:00Z,30.3085,-88.1395,19.13,1111122 
DISL,ioos:station:DISL:CATA:1,2015-03-05T01:30:00Z,30.3085,-88.1395,19.51,1111122 
DISL,ioos:station:DISL:CATA:1,2015-03-05T02:00:00Z,30.3085,-88.1395,18.65,1111122 
DISL,ioos:station:DISL:CATA:1,2015-03-05T02:30:00Z,30.3085,-88.1395,19.2,1111122 
DISL,ioos:station:DISL:CATA:1,2015-03-05T03:00:00Z,30.3085,-88.1395,18.58,1111122 
DISL,ioos:station:DISL:CATA:1,2015-03-05T03:30:00Z,30.3085,-88.1395,18.99,1111122 
DISL,ioos:station:DISL:CATA:1,2015-03-05T04:00:00Z,30.3085,-88.1395,19.3,1111122 
DISL,ioos:station:DISL:CATA:1,2015-03-05T04:30:00Z,30.3085,-88.1395,18.89,1111122 
DISL,ioos:station:DISL:CATA:1,2015-03-05T05:00:00Z,30.3085,-88.1395,17.56,1111122 
DISL,ioos:station:DISL:CATA:1,2015-03-05T05:30:00Z,30.3085,-88.1395,18.24,1111122 
DISL,ioos:station:DISL:CATA:1,2015-03-05T06:30:00Z,30.3085,-88.1395,17.42,1111122 
DISL,ioos:station:DISL:CATA:1,2015-03-05T07:00:00Z,30.3085,-88.1395,17.42,1111122 
DISL,ioos:station:DISL:CATA:1,2015-03-05T07:30:00Z,30.3085,-88.1395,18.11,1111122 
DISL,ioos:station:DISL:CATA:1,2015-03-05T08:00:00Z,30.3085,-88.1395,18.48,1111122 
DISL,ioos:station:DISL:CATA:1,2015-03-05T08:30:00Z,30.3085,-88.1395,17.83,1111122 
DISL,ioos:station:DISL:CATA:1,2015-03-05T09:00:00Z,30.3085,-88.1395,17.22,1111122 
DISL,ioos:station:DISL:CATA:1,2015-03-05T09:30:00Z,30.3085,-88.1395,17.59,1111122 
DISL,ioos:station:DISL:CATA:1,2015-03-05T10:00:00Z,30.3085,-88.1395,17.87,1111122 
DISL,ioos:station:DISL:CATA:1,2015-03-05T10:30:00Z,30.3085,-88.1395,16.77,1111122 
DISL,ioos:station:DISL:CATA:1,2015-03-05T11:00:00Z,30.3085,-88.1395,17.73,1111122 
DISL,ioos:station:DISL:CATA:1,2015-03-05T11:30:00Z,30.3085,-88.1395,17.25,1111122 
DISL,ioos:station:DISL:CATA:1,2015-03-05T12:00:00Z,30.3085,-88.1395,16.91,1111122 
DISL,ioos:station:DISL:CATA:1,2015-03-05T12:30:00Z,30.3085,-88.1395,17.01,1111122 
DISL,ioos:station:DISL:CATA:1,2015-03-05T13:00:00Z,30.3085,-88.1395,17.08,1111122 
DISL,ioos:station:DISL:CATA:1,2015-03-05T13:30:00Z,30.3085,-88.1395,16.67,1111122 
DISL,ioos:station:DISL:CATA:1,2015-03-05T14:00:00Z,30.3085,-88.1395,16.67,1111122 
DISL,ioos:station:DISL:CATA:1,2015-03-05T14:30:00Z,30.3085,-88.1395,14.99,1111122 
DISL,ioos:station:DISL:CATA:1,2015-03-05T15:00:00Z,30.3085,-88.1395,9.91,1111122 
DISL,ioos:station:DISL:CATA:1,2015-03-05T15:30:00Z,30.3085,-88.1395,9.31,1111122 
DISL,ioos:station:DISL:CATA:1,2015-03-05T16:00:00Z,30.3085,-88.1395,7.599,1111122 
DISL,ioos:station:DISL:CATA:1,2015-03-05T16:30:00Z,30.3085,-88.1395,8.53,1111122 
DISL,ioos:station:DISL:CATA:1,2015-03-05T17:00:00Z,30.3085,-88.1395,10.1,1111122 
DISL,ioos:station:DISL:CATA:1,2015-03-05T17:30:00Z,30.3085,-88.1395,10.38,1111122 
DISL,ioos:station:DISL:CATA:1,2015-03-05T18:00:00Z,30.3085,-88.1395,11.47,1111122 
DISL,ioos:station:DISL:CATA:1,2015-03-05T18:30:00Z,30.3085,-88.1395,10.72,1111122 
DISL,ioos:station:DISL:CATA:1,2015-03-05T19:00:00Z,30.3085,-88.1395,8.77,1111122 
DISL,ioos:station:DISL:CATA:1,2015-03-05T19:30:00Z,30.3085,-88.1395,7.874,1111122 
DISL,ioos:station:DISL:CATA:1,2015-03-05T20:00:00Z,30.3085,-88.1395,7.805,1111122 
DISL,ioos:station:DISL:CATA:1,2015-03-05T20:30:00Z,30.3085,-88.1395,7.84,1111122 
DISL,ioos:station:DISL:CATA:1,2015-03-05T21:00:00Z,30.3085,-88.1395,7.085,1111122 
DISL,ioos:station:DISL:CATA:1,2015-03-05T21:30:00Z,30.3085,-88.1395,6.332,1111122 
DISL,ioos:station:DISL:CATA:1,2015-03-05T22:00:00Z,30.3085,-88.1395,6.14,1111122 
DISL,ioos:station:DISL:CATA:1,2015-03-05T22:30:00Z,30.3085,-88.1395,5.798,1111122 
DISL,ioos:station:DISL:CATA:1,2015-03-05T23:00:00Z,30.3085,-88.1395,5.043,1111122 
DISL,ioos:station:DISL:CATA:1,2015-03-05T23:30:00Z,30.3085,-88.1395,3.779,1111122 
DISL,ioos:station:DISL:CATA:1,2015-03-06T00:00:00Z,30.3085,-88.1395,3.645,1111122 
DISL,ioos:station:DISL:CATA:1,2015-03-06T00:30:00Z,30.3085,-88.1395,3.411,1111122 
DISL,ioos:station:DISL:CATA:1,2015-03-06T01:00:00Z,30.3085,-88.1395,3.274,1111122 
DISL,ioos:station:DISL:CATA:1,2015-03-06T01:30:00Z,30.3085,-88.1395,2.759,1111122 
DISL,ioos:station:DISL:CATA:1,2015-03-06T02:00:00Z,30.3085,-88.1395,2.279,1111122 
DISL,ioos:station:DISL:CATA:1,2015-03-06T02:30:00Z,30.3085,-88.1395,2.141,1111122 
DISL,ioos:station:DISL:CATA:1,2015-03-06T03:00:00Z,30.3085,-88.1395,2.038,1111122 
DISL,ioos:station:DISL:CATA:1,2015-03-06T03:30:00Z,30.3085,-88.1395,2.45,1111122 
DISL,ioos:station:DISL:CATA:1,2015-03-06T04:00:00Z,30.3085,-88.1395,2.107,1111122 
DISL,ioos:station:DISL:CATA:1,2015-03-06T04:30:00Z,30.3085,-88.1395,1.181,1111122 
DISL,ioos:station:DISL:CATA:1,2015-03-06T05:00:00Z,30.3085,-88.1395,1.56,1111122 
DISL,ioos:station:DISL:CATA:1,2015-03-06T05:30:00Z,30.3085,-88.1395,0.564,1111122 
DISL,ioos:station:DISL:CATA:1,2015-03-06T06:30:00Z,30.3085,-88.1395,-0.5,11133222 
DISL,ioos:station:DISL:CATA:1,2015-03-06T07:00:00Z,30.3085,-88.1395,0.0,11111222 
DISL,ioos:station:DISL:CATA:1,2015-03-06T07:30:00Z,30.3085,-88.1395,-0.2,11133222 
DISL,ioos:station:DISL:CATA:1,2015-03-06T08:00:00Z,30.3085,-88.1395,-1.2,11133222 
DISL,ioos:station:DISL:CATA:1,2015-03-06T08:30:00Z,30.3085,-88.1395,-1.5,11133222 
DISL,ioos:station:DISL:CATA:1,2015-03-06T09:00:00Z,30.3085,-88.1395,-1.5,11133222 
DISL,ioos:station:DISL:CATA:1,2015-03-06T09:30:00Z,30.3085,-88.1395,-1.4,11133222 
DISL,ioos:station:DISL:CATA:1,2015-03-06T10:00:00Z,30.3085,-88.1395,-1.9,11133222 
DISL,ioos:station:DISL:CATA:1,2015-03-06T10:30:00Z,30.3085,-88.1395,-1.7,11133222 
DISL,ioos:station:DISL:CATA:1,2015-03-06T11:00:00Z,30.3085,-88.1395,-1.8,11133222 
DISL,ioos:station:DISL:CATA:1,2015-03-06T11:30:00Z,30.3085,-88.1395,-1.7,11133222 
DISL,ioos:station:DISL:CATA:1,2015-03-06T12:00:00Z,30.3085,-88.1395,-2.4,11133222 
DISL,ioos:station:DISL:CATA:1,2015-03-06T12:30:00Z,30.3085,-88.1395,-2.1,11133222 
DISL,ioos:station:DISL:CATA:1,2015-03-06T13:00:00Z,30.3085,-88.1395,-2.0,11133222 
DISL,ioos:station:DISL:CATA:1,2015-03-06T13:30:00Z,30.3085,-88.1395,-1.5,11133222 
DISL,ioos:station:DISL:CATA:1,2015-03-06T14:00:00Z,30.3085,-88.1395,-0.9,11133222 
DISL,ioos:station:DISL:CATA:1,2015-03-06T14:30:00Z,30.3085,-88.1395,-0.9,11133222 
DISL,ioos:station:DISL:CATA:1,2015-03-06T15:00:00Z,30.3085,-88.1395,-0.2,11133222 
DISL,ioos:station:DISL:CATA:1,2015-03-06T15:30:00Z,30.3085,-88.1395,1.079,1111122 
DISL,ioos:station:DISL:CATA:1,2015-03-06T16:00:00Z,30.3085,-88.1395,1.798,1111122 
DISL,ioos:station:DISL:CATA:1,2015-03-06T16:30:00Z,30.3085,-88.1395,3.411,1111122 
DISL,ioos:station:DISL:CATA:1,2015-03-06T17:00:00Z,30.3085,-88.1395,4.331,1111122 
DISL,ioos:station:DISL:CATA:1,2015-03-06T17:30:00Z,30.3085,-88.1395,4.324,1111122 
DISL,ioos:station:DISL:CATA:1,2015-03-06T18:00:00Z,30.3085,-88.1395,5.489,1111122 
DISL,ioos:station:DISL:CATA:1,2015-03-06T18:30:00Z,30.3085,-88.1395,6.003,1111122 
DISL,ioos:station:DISL:CATA:1,2015-03-06T19:00:00Z,30.3085,-88.1395,6.312,1111122 
DISL,ioos:station:DISL:CATA:1,2015-03-06T19:30:00Z,30.3085,-88.1395,7.238,1111122 
DISL,ioos:station:DISL:CATA:1,2015-03-06T20:00:00Z,30.3085,-88.1395,7.581,1111122 
DISL,ioos:station:DISL:CATA:1,2015-03-06T20:30:00Z,30.3085,-88.1395,8.22,1111122 
DISL,ioos:station:DISL:CATA:1,2015-03-06T21:00:00Z,30.3085,-88.1395,8.8,1111122 
DISL,ioos:station:DISL:CATA:1,2015-03-06T21:30:00Z,30.3085,-88.1395,9.14,1111122 
DISL,ioos:station:DISL:CATA:1,2015-03-06T22:00:00Z,30.3085,-88.1395,9.31,1111122 
DISL,ioos:station:DISL:CATA:1,2015-03-06T22:30:00Z,30.3085,-88.1395,10.65,1111122 
DISL,ioos:station:DISL:CATA:1,2015-03-06T23:00:00Z,30.3085,-88.1395,10.45,1111122 
DISL,ioos:station:DISL:CATA:1,2015-03-06T23:30:00Z,30.3085,-88.1395,10.03,1111122 
DISL,ioos:station:DISL:CATA:1,2015-03-07T00:00:00Z,30.3085,-88.1395,9.55,1111122 
DISL,ioos:station:DISL:CATA:1,2015-03-07T00:30:00Z,30.3085,-88.1395,8.46,1111122 
DISL,ioos:station:DISL:CATA:1,2015-03-07T01:00:00Z,30.3085,-88.1395,8.44,1111122 
DISL,ioos:station:DISL:CATA:1,2015-03-07T01:30:00Z,30.3085,-88.1395,7.753,1111122 
DISL,ioos:station:DISL:CATA:1,2015-03-07T02:00:00Z,30.3085,-88.1395,7.067,1111122 
DISL,ioos:station:DISL:CATA:1,2015-03-07T02:30:00Z,30.3085,-88.1395,7.273,1111122 
DISL,ioos:station:DISL:CATA:1,2015-03-07T03:00:00Z,30.3085,-88.1395,7.206,1111122 